Location: Lake Arresoe
(56.0000°N, 12.5000°E)
Time: 11:15:27
(UTC+02:00)

Resurs 1-4 Rocket - Pass Details

Date: 17 August 2020
Orbit: 799 x 815 km, 98.6° (Epoch: 23 September)

Event Time Altitude Azimuth Distance (km) Brightness Sun altitude
Rises 01:01:39 0° 28° (NNE) 3,330 6.3 -20.6°
Reaches altitude 10° 01:05:52 10° 61° (ENE) 2,388 4.9 -20.6°
Maximum altitude 01:07:39 12° 81° (E) 2,272 4.5 -20.6°
Drops below altitude 10° 01:09:25 10° 100° (E) 2,380 4.4 -20.6°
Enters shadow 01:10:32 - 111° (ESE) 2,553 4.5 -20.7°
